Location: Eurasberg
(48.3353°N, 11.0839°E)
Time: 09:42:09
(UTC+00:00)

Timation 1 Rocket - Pass Details

Date: 18 January 2026
Orbit: 895 x 908 km, 70.0° (Epoch: 10 February)

Event Time Altitude Azimuth Distance (km) Brightness Sun altitude
Exits shadow 04:19:02 64° 312° (NW) 1,000 4.3 -26.2°
Maximum altitude 04:19:58 80° 243° (WSW) 925 4.2 -26.0°
Drops below altitude 10° 04:25:57 10° 158° (SSE) 2,585 7.0 -25.1°
Sets 04:28:26 0° 157° (SSE) 3,523 7.8 -24.6°
